{"data":{"norad_id":62444,"intl_designator":"2024-251N","name":"STARLINK-32737","alt_names":[],"object_type":"PAYLOAD","status":"ACTIVE","operator":null,"country":"US","launch_date":"2024-12-29","launch_site_code":"AFWTR","launch_vehicle":null,"mission":null,"orbit_class":"UNKNOWN","rcs_meters":null,"size_class":null,"mass_kg":null,"dimensions":null,"purposes":["comms"],"wikipedia_slug":null,"has_3d_model":false,"image_url":null,"decayed_at":null,"tle_current":{"epoch":"2026-05-24T19:12:06.455808Z","epoch_age_seconds":86274,"freshness":"FRESH","line1":"1 62444U 24251N   26144.80007472  .00050058  00000+0  16891-2 0  9993","line2":"2 62444  53.1612 339.4764 0000286  40.9476 319.1547 15.30234700 79632","mean_motion":15.302347,"eccentricity":2.86e-5,"inclination_deg":53.1612,"raan_deg":339.4764,"arg_perigee_deg":40.9476,"mean_anomaly_deg":319.1547,"bstar":0.0016891,"rev_number":7963,"period_min":94.103211749152,"perigee_km":474.91546052586,"apogee_km":475.30746633797,"semimajor_km":6853.2484634319,"source":"CELESTRAK","updated_at":"2026-05-25T13:38:19.659552Z"}}}